Tracking 35237 objects as of 4-Sep-2026
HD Live streaming from Space Station
objects crossing your sky now

BREEZE-M R/B

Track BREEZE-M R/B now!


NORAD ID: 28869
Int'l Code: 2005-036B
Launch date: September 8, 2005
Source: Commonwealth of Independent States (former USSR) (CIS)
Launch site: TYURATAM MISSILE AND SPACE COMPLEX (TTMTR)

Note: This is a ROCKET BODY
Your satellite tracking list
Your tracking list is empty




NASA's NSSDC Master Catalog

Two Line Element Set (TLE):
1 28869U 05036B   26247.05773633  .00000044  00000-0  00000-0 0  9990
2 28869   9.1485 160.9572 6280371 234.0203  50.4855  2.10738511161556
Source of the keplerian elements: AFSPC